Flag for USA

Past Weather in New York, New York, USA — March 2020

Now
78 °F

Clear.


Feels Like: 80 °F
Forecast: 82 / 71 °F
Wind: 6 mph from Northeast

Location: New York City - Central Park
Current Time: Aug 14, 2020 at 10:41:24 pm
Latest Report: Aug 14, 2020 at 8:51 pm
Visibility: 10 mi
Pressure29.98 "Hg
Humidity: 54%
Dew Point: 60 °F
Location of New YorkLocation

March 2020 Weather in New York — Graph

°F

High & Low Weather Summary for March 2020

 TemperatureHumidityPressure
High77 °F (Mar 20, 5:51 pm)97% (Mar 13, 9:05 am)30.69 "Hg (Mar 13, 9:05 am)
Low25 °F (Mar 1, 12:51 am)15% (Mar 7, 1:51 pm)29.45 "Hg (Mar 3, 8:51 pm)
Average47 °F61%30.10 "Hg
* Reported Mar 1 12:51 am — Mar 31 11:51 pm, New York. Weather by CustomWeather, © 2020

Note: Actual official high and low records may vary slightly from our data, if they occured in-between our weather recording intervals... More about our weather records

New York Weather History for March 1, 2020

Scroll right to see more
 ConditionsComfort  
Time TempWeatherWind HumidityBarometerVisibility
12:51 am
Sun, Mar 1
25 °FClear.12 mph48%30.07 "Hg10 mi
1:51 am25 °FClear.5 mph50%30.07 "Hg10 mi
2:51 am25 °FClear.6 mph53%30.08 "Hg10 mi
3:51 am25 °FClear.12 mph55%30.09 "Hg10 mi
4:51 am26 °FClear.8 mph52%30.10 "Hg10 mi
5:51 am26 °FClear.5 mph52%30.11 "Hg10 mi
6:51 am26 °FSunny.8 mph52%30.13 "Hg10 mi
7:51 am28 °FSunny.N/A51%30.14 "Hg10 mi
8:51 am30 °FSunny.8 mph45%30.15 "Hg10 mi
9:51 am32 °FScattered clouds.6 mph43%30.15 "Hg10 mi
10:51 am34 °FSunny.No wind38%30.14 "Hg10 mi
11:51 am37 °FSunny.8 mph34%30.12 "Hg10 mi
12:51 pm39 °FSunny.8 mph33%30.10 "Hg10 mi
1:51 pm41 °FSunny.6 mph30%30.08 "Hg10 mi
2:51 pm42 °FSunny.9 mph28%30.08 "Hg10 mi
4:51 pm43 °FSunny.10 mph28%30.08 "Hg10 mi
5:51 pm43 °FClear.7 mph28%30.11 "Hg10 mi
6:51 pm42 °FClear.6 mph33%30.14 "Hg10 mi
7:51 pm40 °FClear.No wind38%30.15 "Hg10 mi
8:51 pm41 °FClear.No wind38%30.15 "Hg10 mi
9:51 pm40 °FClear.No wind40%30.16 "Hg10 mi
10:51 pm41 °FClear.3 mph36%30.15 "Hg10 mi
11:51 pm42 °FPassing clouds.N/A36%30.15 "Hg10 mi
Weather by CustomWeather, © 2020

See weather overview